Flag for Germany Weather past 2 weeks in Wegberg, North Rhine-Westphalia, Germany

Now
66 °F

Broken clouds.


Feels Like: 66 °F
Forecast: 64 / 77 °F
Wind: No wind

Location: Monchengladbach Airport

Current Time: Jul 28, 2014 at 8:47:37 AM

Latest Report: Jul 28, 2014 at 7:50 AM


Visibility: 4 mi

Pressure: 29.89 "Hg

Humidity: 94%

Dew point: 64 °F

Location of WegbergLocation

Historic Weather in Wegberg — Graph

°F

Wegberg temperature yesterday

Maximum temperature yesterday: 79 °F (at 6:50 PM)
Minimum temperature yesterday: 64 °F (at 7:50 AM)
Average temperature yesterday: 73 °F

Past Weeks' High & Low Weather Summary

 TemperatureHumidityPressure
High91 °F (Jul 19, 4:50 PM)100% (Jul 13, 7:50 AM)30.18 "Hg (Jul 13, 7:50 AM)
Low59 °F (Jul 14, 7:50 AM)29% (Jul 19, 12:50 PM)29.71 "Hg (Jul 13, 6:20 PM)
Average74 °F69%29.97 "Hg
* Reported Jul 13 7:50 AM — Jul 28 7:50 AM, Wegberg, Weather by CustomWeather, © 2014

Note: Actual official high and low records may vary slightly from our data, if they occured in-between our weather recording intervals... More about our weather records

Advertising

Wegberg weather history for previous 24 hours

 ConditionsComfort  
Time TempWeatherWind HumidityBarometerVisibility
7:50 AM
Jul 28
66 °FBroken clouds.No wind94%29.89 "Hg4 mi
8:20 PM
Jul 27
75 °FClear.No wind69%29.95 "Hg10 mi
7:50 PM77 °FClear.1 mph61%29.95 "Hg10 mi
7:20 PM77 °FClear.3 mph57%29.95 "Hg10 mi
6:50 PM79 °FPassing clouds.5 mph54%29.95 "HgN/A
6:20 PM77 °FClear.5 mph57%29.95 "Hg10 mi
5:50 PM77 °FPassing clouds.5 mph57%29.98 "HgN/A
5:20 PM77 °FPassing clouds.6 mph57%29.98 "HgN/A
4:20 PM77 °FPassing clouds.6 mph57%29.98 "HgN/A
3:50 PM77 °FPassing clouds.7 mph61%29.98 "HgN/A
3:20 PM77 °FPassing clouds.5 mph57%30.01 "HgN/A
2:50 PM77 °FPassing clouds.6 mph61%30.01 "HgN/A
2:20 PM75 °FPassing clouds.6 mph61%30.01 "Hg5 mi
1:50 PM75 °FPassing clouds.5 mph57%30.01 "HgN/A
1:20 PM75 °FPartly sunny.3 mph61%30.01 "Hg5 mi
12:50 PM73 °FPartly sunny.1 mph65%30.01 "Hg5 mi
12:20 PM72 °FScattered clouds.2 mph69%30.01 "Hg4 mi
11:50 AM72 °FPartly sunny.3 mph73%30.01 "Hg4 mi
11:20 AM70 °FPartly sunny.1 mph78%30.01 "Hg4 mi
10:50 AM70 °FFog.5 mph78%30.01 "Hg3 mi
10:20 AM68 °FFog.3 mph88%30.01 "Hg2 mi
9:50 AM68 °FFog.5 mph83%30.01 "Hg2 mi
9:20 AM66 °FFog.7 mph94%30.01 "Hg2 mi
8:50 AM66 °FFog.5 mph94%30.01 "Hg1 mi
8:20 AM66 °FDrizzle. Fog.5 mph94%30.01 "Hg1 mi
Weather by CustomWeather, © 2014

See weather overviewHow to use our weather pages